Location: Aalen
(48.8330°N, 10.1000°E)
Time: 02:20:58
(UTC+02:00)

FENGYUN 1C DEB - Visible Passes

Search period start: 15 August 2022 00:00
Search period end: 25 August 2022 00:00
Orbit: 700 x 819 km, 98.7° (Epoch: 13 August)

Date Brightness Start Highest point End Pass type
(mag) Time Alt. Az. Time Alt. Az. Time Alt. Az.
15 Aug ? 01:15:14 10° E 01:17:20 13° NE 01:19:25 10° NNE visible
15 Aug ? 02:54:09 50° SE 02:55:24 74° ENE 03:00:16 10° NNW visible
15 Aug ? 04:34:14 16° W 04:34:46 16° W 04:37:48 10° NW visible
16 Aug ? 02:15:22 27° ESE 02:17:08 35° ENE 02:21:31 10° N visible
16 Aug ? 03:55:28 33° WSW 03:55:59 34° W 04:00:25 10° NNW visible
17 Aug ? 01:36:36 13° E 01:39:04 18° ENE 01:42:19 10° NNE visible
17 Aug ? 03:16:41 61° SSW 03:17:25 74° WSW 03:22:17 10° NNW visible
18 Aug ? 02:37:54 43° ESE 02:39:02 53° ENE 02:43:44 10° N visible
18 Aug ? 04:17:59 22° W 04:18:10 22° W 04:21:57 10° NW visible
19 Aug ? 01:59:07 21° E 02:00:51 26° ENE 02:04:49 10° N visible
19 Aug ? 03:39:12 46° WSW 03:39:29 47° W 03:44:09 10° NNW visible
20 Aug ? 01:20:30 10° E 01:22:51 14° NE 01:25:11 10° NNE visible
20 Aug ? 03:00:24 68° SE 03:00:59 81° ENE 03:05:48 10° NNW visible
20 Aug ? 04:40:29 14° W 04:40:29 14° W 04:43:02 10° NW visible
21 Aug ? 02:21:36 34° E 02:22:41 38° ENE 02:27:06 10° N visible
21 Aug ? 04:01:42 30° W 04:01:42 30° W 04:05:51 10° NW visible
22 Aug ? 01:42:48 16° E 01:44:34 20° ENE 01:47:56 10° NNE visible
22 Aug ? 03:22:54 66° WSW 03:22:59 66° WSW 03:27:46 10° NNW visible
23 Aug ? 02:44:06 55° E 02:44:33 58° ENE 02:49:15 10° N visible
23 Aug ? 04:24:11 20° W 04:24:11 20° W 04:27:17 10° NW visible
24 Aug ? 02:05:17 26° E 02:06:19 28° ENE 02:10:21 10° N visible
24 Aug ? 03:45:23 41° W 03:45:23 41° W 03:49:34 10° NNW visible
